Terug naar catalogus

THOR AGENA D R/B

ActiefPO
NORAD 2255·ROCKET BODY·🇺🇸 United States

Gelanceerd Jun 24, 1966 vanaf Vandenberg Space Force Base

Loading…

Volgende Passages (komende 24 uur)

TLE

VersSource: Space-Track

Epoch: Sep 14, 2026, 04:45 UTC

1 02255U 66056B   26257.19812736  .00000002  00000-0  19253-3 0  9991
2 02255  86.9845 171.2087 0047507  27.8170 332.5164  7.94755977747394

Volg THOR AGENA D R/B in realtime met AllMySat

Download on the App Store